WESTFORD NEEDLES, 2431

Orbit data source: Space-Track

WESTFORD NEEDLES, 2431 is space debris in LEO originally from a launch on Thu, 09 May 1963 UTC launched from the Air Force Western Test Range (AFWTR). Debris objects in space refer to the collection of defunct objects orbiting the Earth. Examples of debris include non-operational satellites, rocket bodies, and fragments generated from explosions, collisions, or faulty payload assembly.

Loading next visibility...
Identifier
2431, 1963-014AC
Orbit
LEO
Country
Flag of USUS
Related business
Manufacturer
Unknown
Mission
Spacecraft
Bus & Motor
Unknown
Mass
Unknown
Launch date (UTC)
1963-05-09 (62 years ago)
Launch vehicle
Unknown
Launch site
Air Force Western Test Range (AFWTR)
Object type
Payload
Rocket body
Debris
Shape & HBR
Unknown shape, 0.3 m
Radar Cross Section
Medium (>0.1 m² and <1 m²)

Expand to show TLE details & history
Last TLE update: 2 days ago

TLE from 2 days ago
0 WESTFORD NEEDLES
1 02431U 63014AC  25307.17164852 -.00000906  00000-0 -38745+0 0  9998
2 02431  87.5043 212.5804 0350162 178.6892 181.4955  8.68544314350081
Epoch: 2025-11-03T04:07Z
TLE epoch observation values (Epoch: 2025-11-03T04:07:10.432Z)
Latitude
0.00005°
Longitude
108.11009°
Altitude
3,971.143 km
Speed
6.097 km/s
True Right ascension
14h 10m 19s
True Declination
0° 00' 00"
Sunlit
Object was in daylight at epoch
Visualization orbit readout
Latitude
Unknown
Longitude
Unknown
Altitude
Unknown
Speed
Unknown
Apparent Right ascension
Unknown
Apparent Declination
Unknown
Sunlit
N/A
Visualization observer readout
Local Sidereal Time
16:23:36
Azimuth
Unknown
Elevation
Unknown
Doppler factor
Unknown
Orbital elements
Apogee altitude
3,966.755 km
Perigee altitude
3,266.787 km
Semi-major axis
9,994.908 km
Eccentricity
0.03502
Inclination
87.5043°
RAAN
212.5804°
Arg. of periapsis
178.6892°
True anomaly
181.39518°
Mean anomaly
181.4955°
Eccentric anomaly
181.44491°
Mean motion
2.17208 °/min
Orbital period
165.74 mins
BSTAR
-0.38745
Loading maneuver chart data...
Computing Atmospheric mass density...

Documentation

Showing up to 5 results
|